AAL1123 KDFW-KIAH

Flight info

Callsign AAL1123
Flight time 0h 54m
Altitude 31000
Route DARTZ9 TORNN GUSHR3
Aircraft A20N/M-SDE2E3FGHIRWXY/LB1

Departure

Time 2026-05-06 21:13
Airport Dallas Fort Worth International Airport (KDFW)

Arrival

Time 2026-05-06 22:07
Airport George Bush Intercontinental Airport (KIAH)
Time Latitude Longitude Altitude Speed Heading
2026-05-06 20:52 32.89798 -97.03518 581 ft 0 kts 233°
2026-05-06 21:03 32.89798 -97.03517 581 ft 2 kts 233°
2026-05-06 21:03 32.89809 -97.03500 577 ft 3 kts 233°
2026-05-06 21:03 32.89821 -97.03482 581 ft 3 kts 233°
2026-05-06 21:03 32.89832 -97.03463 580 ft 3 kts 233°
2026-05-06 21:04 32.89844 -97.03445 580 ft 3 kts 230°
2026-05-06 21:04 32.89859 -97.03430 580 ft 3 kts 216°
2026-05-06 21:04 32.89877 -97.03421 579 ft 3 kts 173°
2026-05-06 21:04 32.89878 -97.03421 579 ft 0 kts 171°
2026-05-06 21:06 32.89875 -97.03420 579 ft 6 kts 171°
2026-05-06 21:06 32.89734 -97.03320 582 ft 33 kts 169°
2026-05-06 21:07 32.89551 -97.03317 579 ft 15 kts 181°
2026-05-06 21:07 32.89542 -97.03318 578 ft 0 kts 181°
2026-05-06 21:07 32.89492 -97.03319 579 ft 17 kts 181°
2026-05-06 21:07 32.89319 -97.03319 575 ft 27 kts 179°
2026-05-06 21:08 32.89147 -97.03320 572 ft 23 kts 180°
2026-05-06 21:08 32.88992 -97.03321 569 ft 21 kts 180°
2026-05-06 21:08 32.88859 -97.03322 570 ft 18 kts 180°
2026-05-06 21:08 32.88722 -97.03322 570 ft 21 kts 180°
2026-05-06 21:09 32.88616 -97.03324 571 ft 15 kts 180°
2026-05-06 21:09 32.88520 -97.03315 578 ft 13 kts 161°
2026-05-06 21:09 32.88444 -97.03289 579 ft 10 kts 175°
2026-05-06 21:09 32.88351 -97.03289 576 ft 20 kts 180°
2026-05-06 21:10 32.88170 -97.03289 575 ft 27 kts 179°
2026-05-06 21:10 32.88060 -97.03288 580 ft 1 kts 165°
2026-05-06 21:10 32.88049 -97.03226 577 ft 9 kts 87°
2026-05-06 21:10 32.88050 -97.03140 575 ft 9 kts 89°
2026-05-06 21:11 32.88050 -97.03136 575 ft 2 kts 89°
2026-05-06 21:11 32.88065 -97.03032 576 ft 12 kts 52°
2026-05-06 21:11 32.88108 -97.03009 575 ft 0 kts
2026-05-06 21:11 32.88123 -97.03008 578 ft 16 kts
2026-05-06 21:12 32.88277 -97.03006 579 ft 46 kts
2026-05-06 21:12 32.88871 -97.03001 571 ft 123 kts
2026-05-06 21:12 32.89957 -97.02998 595 ft 187 kts
2026-05-06 21:12 32.91360 -97.02971 998 ft 198 kts
2026-05-06 21:13 32.92627 -97.02823 1153 ft 186 kts
2026-05-06 21:13 32.93963 -97.02522 1618 ft 203 kts 13°
2026-05-06 21:13 32.95476 -97.02070 2046 ft 246 kts 14°
2026-05-06 21:13 32.97103 -97.01532 2578 ft 244 kts 17°
2026-05-06 21:14 32.98786 -97.00941 3131 ft 250 kts 17°
2026-05-06 21:14 33.00389 -97.00129 3674 ft 261 kts 39°
2026-05-06 21:14 33.01404 -96.98307 4275 ft 279 kts 75°
2026-05-06 21:14 33.01663 -96.95961 4727 ft 288 kts 89°
2026-05-06 21:15 33.01604 -96.93572 5022 ft 289 kts 95°
2026-05-06 21:15 33.01406 -96.91061 5598 ft 315 kts 99°
2026-05-06 21:15 33.00883 -96.88520 6168 ft 314 kts 111°
2026-05-06 21:15 33.00047 -96.86105 6716 ft 319 kts 119°
2026-05-06 21:16 32.98980 -96.83781 7251 ft 318 kts 124°
2026-05-06 21:16 32.97625 -96.81746 7795 ft 312 kts 147°
2026-05-06 21:16 32.95700 -96.80644 8355 ft 308 kts 167°
2026-05-06 21:16 32.93628 -96.80034 8896 ft 306 kts 173°
2026-05-06 21:17 32.91549 -96.79641 9434 ft 308 kts 177°
2026-05-06 21:17 32.89399 -96.79388 9741 ft 312 kts 180°
2026-05-06 21:17 32.87239 -96.79242 9871 ft 311 kts 182°
2026-05-06 21:17 32.85055 -96.79171 9941 ft 327 kts 183°
2026-05-06 21:18 32.82644 -96.79164 9973 ft 366 kts 184°
2026-05-06 21:18 32.79976 -96.79199 9990 ft 401 kts 184°
2026-05-06 21:18 32.77084 -96.79277 9992 ft 419 kts 185°
2026-05-06 21:18 32.74277 -96.79366 10007 ft 395 kts 185°
2026-05-06 21:19 32.71536 -96.79464 10498 ft 393 kts 185°
2026-05-06 21:19 32.68796 -96.79566 11020 ft 393 kts 186°
2026-05-06 21:19 32.66068 -96.79667 11544 ft 390 kts 186°
2026-05-06 21:19 32.63361 -96.79769 12084 ft 388 kts 186°
2026-05-06 21:20 32.60672 -96.79871 12627 ft 385 kts 187°
2026-05-06 21:20 32.58037 -96.79972 13177 ft 383 kts 187°
2026-05-06 21:20 32.55361 -96.80076 13746 ft 390 kts 187°
2026-05-06 21:20 32.52608 -96.80190 14256 ft 401 kts 187°
2026-05-06 21:21 32.49810 -96.80303 14762 ft 401 kts 188°
2026-05-06 21:21 32.47033 -96.80408 15277 ft 398 kts 188°
2026-05-06 21:21 32.44276 -96.80509 15908 ft 393 kts 188°
2026-05-06 21:21 32.41545 -96.80606 16671 ft 392 kts 189°
2026-05-06 21:22 32.38825 -96.80704 17449 ft 390 kts 189°
2026-05-06 21:22 32.36119 -96.80802 18246 ft 386 kts 189°
2026-05-06 21:22 32.33446 -96.80901 18950 ft 383 kts 190°
2026-05-06 21:22 32.30761 -96.80752 19663 ft 393 kts 180°
2026-05-06 21:23 32.28056 -96.80126 20408 ft 399 kts 176°
2026-05-06 21:23 32.25357 -96.79330 21154 ft 400 kts 174°
2026-05-06 21:23 32.22671 -96.78449 21936 ft 400 kts 174°
2026-05-06 21:23 32.20006 -96.77519 22728 ft 399 kts 173°
2026-05-06 21:24 32.17354 -96.76558 23567 ft 398 kts 173°
2026-05-06 21:24 32.14745 -96.75590 24249 ft 398 kts 173°
2026-05-06 21:24 32.12115 -96.74598 24949 ft 396 kts 173°
2026-05-06 21:24 32.09504 -96.73602 25671 ft 393 kts 173°
2026-05-06 21:25 32.06914 -96.72605 26419 ft 390 kts 173°
2026-05-06 21:25 32.04344 -96.71611 27179 ft 386 kts 173°
2026-05-06 21:25 32.01799 -96.70624 27961 ft 382 kts 174°
2026-05-06 21:25 31.99289 -96.69648 28763 ft 376 kts 174°
2026-05-06 21:26 31.96823 -96.68689 29585 ft 370 kts 175°
2026-05-06 21:26 31.94367 -96.67744 29783 ft 380 kts 175°
2026-05-06 21:26 31.91814 -96.66790 30042 ft 386 kts 175°
2026-05-06 21:26 31.89242 -96.65813 30452 ft 389 kts 174°
2026-05-06 21:27 31.86677 -96.64828 30730 ft 395 kts 174°
2026-05-06 21:27 31.84032 -96.63814 30870 ft 405 kts 174°
2026-05-06 21:27 31.81309 -96.62775 30932 ft 417 kts 174°
2026-05-06 21:27 31.78509 -96.61710 30956 ft 430 kts 174°
2026-05-06 21:28 31.75619 -96.60608 30972 ft 442 kts 173°
2026-05-06 21:28 31.72651 -96.59473 30980 ft 454 kts 173°
2026-05-06 21:28 31.69620 -96.58307 30981 ft 461 kts 173°
2026-05-06 21:29 31.63552 -96.55937 30840 ft 457 kts 172°
2026-05-06 21:29 31.60542 -96.54759 30247 ft 456 kts 172°
2026-05-06 21:29 31.57500 -96.53583 29611 ft 464 kts 172°
2026-05-06 21:29 31.54495 -96.52341 29248 ft 451 kts 168°
2026-05-06 21:30 31.51675 -96.50890 29032 ft 434 kts 166°
2026-05-06 21:30 31.48963 -96.49373 28216 ft 430 kts 165°
2026-05-06 21:30 31.46290 -96.47825 27462 ft 425 kts 164°
2026-05-06 21:30 31.43667 -96.46271 26750 ft 420 kts 163°
2026-05-06 21:31 31.41085 -96.44721 26048 ft 414 kts 163°
2026-05-06 21:31 31.38568 -96.43197 25359 ft 409 kts 163°
2026-05-06 21:31 31.36055 -96.41670 24697 ft 405 kts 163°
2026-05-06 21:31 31.33559 -96.40150 24343 ft 401 kts 163°
2026-05-06 21:32 31.31095 -96.38646 24118 ft 398 kts 163°
2026-05-06 21:32 31.26186 -96.35652 23955 ft 399 kts 163°
2026-05-06 21:32 31.23724 -96.34153 23929 ft 399 kts 163°
2026-05-06 21:33 31.21262 -96.32655 23910 ft 399 kts 163°
2026-05-06 21:33 31.18798 -96.31151 23896 ft 400 kts 161°
2026-05-06 21:33 31.16549 -96.29108 23909 ft 427 kts 139°
2026-05-06 21:33 31.15010 -96.26031 23944 ft 453 kts 116°
2026-05-06 21:34 31.14456 -96.22349 23997 ft 472 kts 94°
2026-05-06 21:34 31.14976 -96.18531 24025 ft 483 kts 72°
2026-05-06 21:34 31.16525 -96.15054 24039 ft 483 kts 50°
2026-05-06 21:34 31.18910 -96.12348 24043 ft 474 kts 28°
2026-05-06 21:35 31.21831 -96.10725 24047 ft 457 kts
2026-05-06 21:35 31.24865 -96.10350 24057 ft 435 kts 345°
2026-05-06 21:35 31.27681 -96.11210 24061 ft 406 kts 322°
2026-05-06 21:35 31.29830 -96.13133 24072 ft 376 kts 298°
2026-05-06 21:36 31.30963 -96.15735 24075 ft 350 kts 274°
2026-05-06 21:36 31.30941 -96.18498 24075 ft 339 kts 256°
2026-05-06 21:36 31.30418 -96.21181 24041 ft 338 kts 253°
2026-05-06 21:36 31.29811 -96.23833 24024 ft 336 kts 252°
2026-05-06 21:37 31.28842 -96.26276 24038 ft 334 kts 230°
2026-05-06 21:37 31.26921 -96.27840 24060 ft 350 kts 204°
2026-05-06 21:37 31.24416 -96.28110 24063 ft 379 kts 180°
2026-05-06 21:37 31.21872 -96.26973 24053 ft 408 kts 156°
2026-05-06 21:38 31.19564 -96.24969 24018 ft 415 kts 152°
2026-05-06 21:38 31.17293 -96.22887 23995 ft 413 kts 152°
2026-05-06 21:38 31.15000 -96.20877 23977 ft 411 kts 154°
2026-05-06 21:38 31.13458 -96.19606 23974 ft 409 kts 156°
2026-05-06 21:39 31.11087 -96.17785 23969 ft 407 kts 158°
2026-05-06 21:39 31.07873 -96.15537 23965 ft 404 kts 161°
2026-05-06 21:39 31.05420 -96.13959 23922 ft 402 kts 162°
2026-05-06 21:39 31.02948 -96.12463 23618 ft 398 kts 163°
2026-05-06 21:40 31.00476 -96.11046 22996 ft 394 kts 165°
2026-05-06 21:40 30.98803 -96.10126 22598 ft 393 kts 165°
2026-05-06 21:40 30.96352 -96.08827 22252 ft 389 kts 166°
2026-05-06 21:40 30.93868 -96.07549 22100 ft 383 kts 166°
2026-05-06 21:41 30.91454 -96.06341 22035 ft 383 kts 167°
2026-05-06 21:41 30.88997 -96.05144 22005 ft 383 kts 167°
2026-05-06 21:41 30.86528 -96.03966 21990 ft 383 kts 167°
2026-05-06 21:41 30.84059 -96.02804 21983 ft 383 kts 168°
2026-05-06 21:42 30.81582 -96.01654 21974 ft 383 kts 168°
2026-05-06 21:42 30.79102 -96.00515 21966 ft 382 kts 168°
2026-05-06 21:42 30.76627 -95.99387 21958 ft 382 kts 168°
2026-05-06 21:42 30.74144 -95.98262 21950 ft 383 kts 168°
2026-05-06 21:43 30.71663 -95.97144 21933 ft 382 kts 168°
2026-05-06 21:43 30.69152 -95.96243 21923 ft 374 kts 175°
2026-05-06 21:43 30.66621 -95.95531 21851 ft 375 kts 175°
2026-05-06 21:43 30.64099 -95.94758 21506 ft 375 kts 173°
2026-05-06 21:44 30.61611 -95.93852 20917 ft 375 kts 170°
2026-05-06 21:44 30.59196 -95.92817 20199 ft 375 kts 167°
2026-05-06 21:44 30.56794 -95.91645 19502 ft 373 kts 165°
2026-05-06 21:44 30.54449 -95.90381 18831 ft 371 kts 162°
2026-05-06 21:45 30.52143 -95.88997 18259 ft 378 kts 157°
2026-05-06 21:45 30.49944 -95.87327 17703 ft 377 kts 153°
2026-05-06 21:45 30.47845 -95.85529 17112 ft 373 kts 150°
2026-05-06 21:45 30.45814 -95.83682 16517 ft 369 kts 149°
2026-05-06 21:46 30.43827 -95.81812 15936 ft 367 kts 148°
2026-05-06 21:46 30.41867 -95.79924 15380 ft 365 kts 147°
2026-05-06 21:46 30.39929 -95.78029 14835 ft 364 kts 147°
2026-05-06 21:46 30.38011 -95.76139 14294 ft 361 kts 147°
2026-05-06 21:47 30.36103 -95.74266 13759 ft 357 kts 147°
2026-05-06 21:47 30.34224 -95.72429 13311 ft 348 kts 146°
2026-05-06 21:47 30.32408 -95.70655 13007 ft 335 kts 146°
2026-05-06 21:47 30.30656 -95.68947 12759 ft 323 kts 147°
2026-05-06 21:48 30.28958 -95.67297 12383 ft 316 kts 147°
2026-05-06 21:48 30.27277 -95.65679 11848 ft 313 kts 147°
2026-05-06 21:48 30.25618 -95.64093 11420 ft 316 kts 146°
2026-05-06 21:48 30.23931 -95.62483 11191 ft 310 kts 146°
2026-05-06 21:49 30.22283 -95.60898 11070 ft 307 kts 146°
2026-05-06 21:49 30.20637 -95.59317 10792 ft 307 kts 146°
2026-05-06 21:49 30.18994 -95.57745 10420 ft 305 kts 145°
2026-05-06 21:49 30.17364 -95.56183 9953 ft 303 kts 144°
2026-05-06 21:50 30.15747 -95.54634 9496 ft 302 kts 144°
2026-05-06 21:50 30.14137 -95.53089 9219 ft 299 kts 144°
2026-05-06 21:50 30.12552 -95.51558 9098 ft 296 kts 144°
2026-05-06 21:50 30.10975 -95.50028 9048 ft 296 kts 144°
2026-05-06 21:51 30.09413 -95.48500 9030 ft 287 kts 143°
2026-05-06 21:51 30.07912 -95.47021 9019 ft 284 kts 143°
2026-05-06 21:51 30.06575 -95.45317 9036 ft 293 kts 119°
2026-05-06 21:51 30.05860 -95.43084 9031 ft 296 kts 120°
2026-05-06 21:52 30.04583 -95.41321 9042 ft 284 kts 154°
2026-05-06 21:52 30.02834 -95.40362 9030 ft 281 kts 162°
2026-05-06 21:52 30.01104 -95.39490 9011 ft 263 kts 159°
2026-05-06 21:52 29.99522 -95.38460 9009 ft 260 kts 150°
2026-05-06 21:53 29.98062 -95.37228 9003 ft 263 kts 146°
2026-05-06 21:53 29.96671 -95.35865 8872 ft 263 kts 132°
2026-05-06 21:53 29.95919 -95.33952 8502 ft 270 kts 96°
2026-05-06 21:53 29.95941 -95.31783 8164 ft 269 kts 89°
2026-05-06 21:54 29.95642 -95.29713 7786 ft 260 kts 124°
2026-05-06 21:54 29.94462 -95.28217 7404 ft 251 kts 146°
2026-05-06 21:54 29.93045 -95.27046 6999 ft 251 kts 150°
2026-05-06 21:54 29.91611 -95.25910 6634 ft 251 kts 139°
2026-05-06 21:55 29.90720 -95.24141 6509 ft 263 kts 102°
2026-05-06 21:55 29.90529 -95.22081 6528 ft 255 kts 94°
2026-05-06 21:55 29.90474 -95.20052 6308 ft 253 kts 92°
2026-05-06 21:55 29.90455 -95.17997 5949 ft 258 kts 91°
2026-05-06 21:56 29.90448 -95.15942 5614 ft 256 kts 91°
2026-05-06 21:56 29.90455 -95.13897 5287 ft 254 kts 91°
2026-05-06 21:56 29.90469 -95.11869 4941 ft 252 kts 91°
2026-05-06 21:56 29.90489 -95.09890 4623 ft 246 kts 91°
2026-05-06 21:57 29.90518 -95.07901 4257 ft 246 kts 91°
2026-05-06 21:57 29.90545 -95.05985 4119 ft 232 kts 91°
2026-05-06 21:57 29.90578 -95.04066 4056 ft 241 kts 91°
2026-05-06 21:57 29.90619 -95.02144 4037 ft 239 kts 91°
2026-05-06 21:58 29.90898 -95.00266 4033 ft 241 kts 63°
2026-05-06 21:58 29.92080 -94.98932 4035 ft 242 kts 21°
2026-05-06 21:58 29.93702 -94.98483 4030 ft 240 kts
2026-05-06 21:58 29.95343 -94.98245 4007 ft 236 kts
2026-05-06 21:59 29.97002 -94.98048 4007 ft 247 kts
2026-05-06 21:59 29.98782 -94.97870 4016 ft 278 kts
2026-05-06 21:59 30.00719 -94.98101 4053 ft 262 kts 336°
2026-05-06 21:59 30.01956 -94.99181 3631 ft 201 kts 306°
2026-05-06 22:00 30.02517 -95.00593 2692 ft 191 kts 282°
2026-05-06 22:00 30.02595 -95.01985 2200 ft 162 kts 262°
2026-05-06 22:00 30.02434 -95.03191 1729 ft 144 kts 247°
2026-05-06 22:00 30.01935 -95.04263 1554 ft 167 kts 237°
2026-05-06 22:01 30.01242 -95.05396 1800 ft 168 kts 233°
2026-05-06 22:01 30.00801 -95.06406 1830 ft 122 kts 251°
2026-05-06 22:01 30.00565 -95.07307 1327 ft 126 kts 248°
2026-05-06 22:01 30.00296 -95.08303 990 ft 123 kts 252°
2026-05-06 22:02 30.00118 -95.09194 650 ft 126 kts 254°
2026-05-06 22:02 29.99978 -95.10431 840 ft 162 kts 265°
2026-05-06 22:02 29.99965 -95.11750 1739 ft 166 kts 266°
2026-05-06 22:02 29.99976 -95.13124 2520 ft 184 kts 270°
2026-05-06 22:03 29.99971 -95.14618 2978 ft 181 kts 269°
2026-05-06 22:03 29.99953 -95.16002 3343 ft 167 kts 269°
2026-05-06 22:03 29.99992 -95.17326 3407 ft 166 kts 274°
2026-05-06 22:03 30.00089 -95.18709 3318 ft 179 kts 275°
2026-05-06 22:04 30.00194 -95.20172 3082 ft 180 kts 275°
2026-05-06 22:04 30.00298 -95.21536 2652 ft 164 kts 275°
2026-05-06 22:04 30.00407 -95.22823 2099 ft 160 kts 275°
2026-05-06 22:04 30.00473 -95.24079 1660 ft 152 kts 271°
2026-05-06 22:05 30.00319 -95.25314 1377 ft 175 kts 254°
2026-05-06 22:05 29.99916 -95.26535 1232 ft 148 kts 246°
2026-05-06 22:05 29.99566 -95.27640 925 ft 150 kts 255°
2026-05-06 22:05 29.99380 -95.28804 738 ft 151 kts 265°
2026-05-06 22:06 29.99350 -95.30111 612 ft 169 kts 269°
2026-05-06 22:06 29.99345 -95.31467 313 ft 170 kts 270°
2026-05-06 22:06 29.99344 -95.32789 104 ft 153 kts 270°
2026-05-06 22:06 29.99343 -95.33809 101 ft 103 kts 270°
2026-05-06 22:07 29.99342 -95.34502 102 ft 74 kts 268°
2026-05-06 22:07 29.99252 -95.34847 102 ft 13 kts 239°
2026-05-06 22:07 29.99196 -95.34960 102 ft 16 kts 238°
2026-05-06 22:07 29.99178 -95.35055 102 ft 17 kts 269°
2026-05-06 22:08 29.99178 -95.35220 103 ft 9 kts 270°
2026-05-06 22:08 29.99177 -95.35344 103 ft 27 kts 271°
2026-05-06 22:08 29.99136 -95.35481 103 ft 17 kts 196°
2026-05-06 22:08 29.99020 -95.35484 103 ft 17 kts 180°
2026-05-06 22:09 29.98902 -95.35486 103 ft 17 kts 181°
2026-05-06 22:09 29.98794 -95.35456 102 ft 16 kts 152°
2026-05-06 22:09 29.98696 -95.35394 103 ft 17 kts 152°
2026-05-06 22:09 29.98567 -95.35316 102 ft 25 kts 152°
2026-05-06 22:10 29.98410 -95.35220 102 ft 21 kts 147°
2026-05-06 22:10 29.98382 -95.35113 102 ft 12 kts 89°
2026-05-06 22:10 29.98383 -95.35033 102 ft 10 kts 90°
2026-05-06 22:10 29.98383 -95.34917 102 ft 19 kts 90°
2026-05-06 22:11 29.98441 -95.34807 101 ft 14 kts 29°
2026-05-06 22:11 29.98513 -95.34767 102 ft 9 kts 40°
2026-05-06 22:11 29.98533 -95.34744 102 ft 0 kts 46°